QPF
0.04 0.05 0.07 0.05 0.04 0.03 0.02 0.02 0.02 0.02 0.02 0.02 0.02 0.03 0.05 0.05 0.04 0.06 0.07 0.07 0.07 0.08 0.08 0.06 0.04 0.04 0.04 0.04 0.02 0.01 0.01 0.00 0.00 0.00 0.00 0.00 0.00 0.00 0.00 0.00 0.00 0.01 0.01
0.03 0.03 0.05 0.04 0.04 0.03 0.03 0.02 0.03 0.03 0.04 0.04 0.02 0.02 0.02 0.04 0.04 0.04 0.05 0.07 0.06 0.07 0.10 0.08 0.05 0.04 0.04 0.05 0.04 0.03 0.02 0.01 0.01 0.00 0.00 0.00 0.00 0.00 0.00 0.00 0.00 0.01 0.01
0.02 0.02 0.03 0.03 0.03 0.03 0.03 0.02 0.03 0.04 0.05 0.07 0.06 0.04 0.03 0.02 0.04 0.06 0.06 0.07 0.07 0.07 0.10 0.11 0.07 0.04 0.04 0.05 0.04 0.03 0.02 0.01 0.01 0.01 0.01 0.00 0.01 0.00 0.00 0.00 0.00 0.00 0.00
0.01 0.02 0.02 0.02 0.01 0.01 0.01 0.01 0.02 0.02 0.04 0.04 0.07 0.08 0.07 0.04 0.02 0.03 0.05 0.07 0.08 0.08 0.10 0.12 0.09 0.06 0.05 0.05 0.05 0.03 0.02 0.01 0.01 0.01 0.00 0.01 0.01 0.01 0.00 0.00 0.00 0.01 0.01
0.01 0.02 0.02 0.01 0.00 0.01 0.01 0.01 0.01 0.01 0.02 0.02 0.03 0.05 0.08 0.09 0.07 0.04 0.03 0.04 0.06 0.08 0.09 0.12 0.12 0.09 0.07 0.06 0.06 0.04 0.02 0.01 0.01 0.01 0.01 0.01 0.01 0.01 0.01 0.01 0.00 0.01 0.01
0.01 0.01 0.01 0.01 0.00 0.00 0.01 0.01 0.01 0.01 0.01 0.01 0.01 0.02 0.03 0.07 0.09 0.07 0.05 0.04 0.04 0.05 0.06 0.09 0.12 0.12 0.10 0.08 0.07 0.06 0.04 0.02 0.01 0.00 0.00 0.00 0.00 0.00 0.00 0.01 0.01 0.01 0.01
0.01 0.01 0.01 0.00 0.00 0.00 0.00 0.01 0.01 0.01 0.02 0.02 0.01 0.01 0.02 0.03 0.06 0.09 0.07 0.05 0.04 0.04 0.05 0.05 0.08 0.10 0.10 0.10 0.08 0.07 0.06 0.03 0.02 0.01 0.01 0.00 0.00 0.00 0.01 0.01 0.01 0.01 0.01
0.01 0.01 0.00 0.00 0.00 0.00 0.00 0.01 0.01 0.01 0.02 0.02 0.01 0.01 0.01 0.01 0.03 0.05 0.07 0.07 0.07 0.06 0.06 0.05 0.04 0.06 0.07 0.07 0.07 0.07 0.06 0.04 0.03 0.02 0.01 0.01 0.01 0.01 0.01 0.01 0.01 0.01 0.00
0.01 0.01 0.00 0.00 0.00 0.00 0.00 0.00 0.01 0.01 0.01 0.02 0.02 0.02 0.01 0.01 0.01 0.01 0.02 0.03 0.05 0.05 0.06 0.07 0.05 0.03 0.04 0.04 0.04 0.05 0.05 0.04 0.02 0.02 0.01 0.01 0.01 0.01 0.01 0.01 0.01 0.01 0.01
0.01 0.00 0.00 0.00 0.00 0.00 0.00 0.00 0.01 0.01 0.01 0.01 0.02 0.03 0.02 0.02 0.01 0.01 0.01 0.02 0.02 0.03 0.04 0.06 0.06 0.04 0.03 0.03 0.03 0.03 0.03 0.03 0.02 0.02 0.01 0.01 0.01 0.01 0.01 0.01 0.01 0.01 0.01
0.01 0.00 0.00 0.00 0.00 0.00 0.00 0.00 0.00 0.01 0.01 0.01 0.02 0.03 0.03 0.03 0.02 0.02 0.01 0.01 0.01 0.01 0.03 0.04 0.04 0.04 0.03 0.03 0.03 0.03 0.02 0.02 0.02 0.01 0.01 0.01 0.01 0.00 0.00 0.00 0.00 0.01 0.01
0.00 0.00 0.00 0.00 0.00 0.00 0.00 0.00 0.00 0.00 0.01 0.00 0.01 0.02 0.03 0.03 0.04 0.03 0.02 0.02 0.01 0.01 0.01 0.02 0.04 0.04 0.03 0.03 0.03 0.02 0.02 0.02 0.02 0.01 0.01 0.01 0.00 0.00 0.00 0.00 0.00 0.00 0.00
0.00 0.00 0.00 0.00 0.00 0.00 0.00 0.00 0.00 0.00 0.00 0.01 0.00 0.01 0.02 0.03 0.03 0.04 0.03 0.02 0.02 0.01 0.00 0.01 0.02 0.03 0.03 0.02 0.02 0.02 0.02 0.02 0.02 0.02 0.01 0.01 0.00 0.00 0.00 0.00 0.00 0.00 0.00
0.00 0.00 0.00 0.00 0.00 0.00 0.00 0.00 0.00 0.00 0.00 0.01 0.01 0.01 0.01 0.01 0.02 0.02 0.03 0.02 0.02 0.01 0.01 0.01 0.01 0.02 0.02 0.02 0.02 0.01 0.01 0.01 0.01 0.01 0.01 0.01 0.00 0.00 0.00 0.00 0.00 0.00 0.00
0.00 0.00 0.00 0.00 0.00 0.00 0.00 0.00 0.00 0.00 0.00 0.01 0.01 0.01 0.01 0.01 0.01 0.01 0.02 0.02 0.02 0.02 0.01 0.01 0.01 0.01 0.01 0.01 0.01 0.01 0.01 0.01 0.01 0.01 0.01 0.01 0.01 0.00 0.00 0.00 0.00 0.00 0.00
0.00 0.00 0.00 0.00 0.00 0.00 0.00 0.00 0.00 0.00 0.00 0.00 0.00 0.00 0.01 0.01 0.00 0.00 0.01 0.01 0.02 0.02 0.02 0.01 0.01 0.01 0.01 0.01 0.01 0.01 0.01 0.01 0.01 0.01 0.00 0.00 0.00 0.00 0.00 0.00 0.00 0.00 0.01
0.00 0.00 0.00 0.00 0.00 0.00 0.00 0.00 0.00 0.00 0.00 0.00 0.00 0.00 0.00 0.00 0.00 0.00 0.00 0.01 0.01 0.02 0.02 0.02 0.01 0.01 0.01 0.01 0.01 0.01 0.01 0.01 0.01 0.01 0.00 0.00 0.00 0.00 0.00 0.00 0.00 0.00 0.00
0.00 0.00 0.00 0.00 0.00 0.00 0.00 0.00 0.00 0.00 0.00 0.00 0.00 0.00 0.00 0.00 0.00 0.00 0.00 0.01 0.01 0.02 0.02 0.01 0.01 0.01 0.01 0.01 0.00 0.00 0.00 0.00 0.00 0.00 0.00 0.00 0.00 0.00 0.00 0.00 0.00 0.00 0.00
0.00 0.00 0.00 0.00 0.00 0.00 0.00 0.00 0.00 0.00 0.00 0.00 0.00 0.00 0.00 0.00 0.00 0.00 0.00 0.01 0.01 0.01 0.02 0.02 0.01 0.01 0.01 0.01 0.00 0.00 0.00 0.00 0.00 0.00 0.00 0.00 0.00 0.00 0.01 0.01 0.01 0.00 0.00
0.00 0.00 0.00 0.00 0.00 0.00 0.00 0.00 0.00 0.00 0.00 0.00 0.00 0.00 0.01 0.00 0.00 0.00 0.00 0.01 0.01 0.01 0.01 0.02 0.01 0.01 0.01 0.01 0.01 0.00 0.00 0.00 0.00 0.00 0.00 0.00 0.00 0.01 0.01 0.01 0.01 0.01 0.01
0.00 0.00 0.00 0.00 0.00 0.00 0.00 0.00 0.00 0.00 0.00 0.00 0.00 0.01 0.01 0.00 0.00 0.00 0.00 0.01 0.01 0.01 0.01 0.01 0.01 0.01 0.01 0.01 0.01 0.01 0.00 0.00 0.00 0.00 0.00 0.00 0.01 0.01 0.01 0.01 0.01 0.01 0.01
0.00 0.00 0.00 0.00 0.00 0.00 0.00 0.00 0.00 0.00 0.00 0.00 0.00 0.00 0.00 0.00 0.00 0.00 0.00 0.00 0.01 0.01 0.01 0.01 0.01 0.01 0.01 0.01 0.01 0.01 0.00 0.00 0.00 0.00 0.00 0.00 0.01 0.01 0.01 0.01 0.01 0.01 0.01
0.00 0.00 0.00 0.00 0.00 0.00 0.00 0.00 0.00 0.00 0.00 0.00 0.00 0.00 0.00 0.00 0.00 0.00 0.00 0.00 0.00 0.01 0.01 0.01 0.00 0.00 0.00 0.00 0.00 0.00 0.00 0.00 0.00 0.00 0.00 0.00 0.00 0.01 0.01 0.00 0.01 0.01 0.01
0.00 0.00 0.00 0.00 0.00 0.00 0.00 0.00 0.00 0.00 0.00 0.00 0.00 0.00 0.00 0.00 0.00 0.00 0.00 0.00 0.00 0.01 0.01 0.01 0.00 0.00 0.00 0.00 0.00 0.00 0.00 0.00 0.00 0.00 0.00 0.00 0.00 0.00 0.00 0.00 0.00 0.01 0.01
0.00 0.00 0.00 0.00 0.00 0.00 0.00 0.00 0.00 0.00 0.00 0.00 0.00 0.00 0.00 0.00 0.00 0.00 0.00 0.00 0.00 0.00 0.01 0.01 0.01 0.01 0.00 0.00 0.00 0.00 0.00 0.00 0.00 0.00 0.00 0.00 0.00 0.00 0.00 0.00 0.00 0.01 0.01
0.00 0.00 0.00 0.00 0.00 0.00 0.00 0.00 0.00 0.00 0.00 0.00 0.00 0.00 0.00 0.00 0.00 0.00 0.00 0.00 0.00 0.00 0.00 0.01 0.01 0.01 0.01 0.01 0.01 0.01 0.00 0.00 0.00 0.00 0.00 0.00 0.00 0.00 0.00 0.01 0.01 0.01 0.01
MSLP
1015.97 1016.38 1016.85 1017.38 1017.93 1018.50 1019.05 1019.57 1020.05 1020.46 1020.81 1021.09 1021.31 1021.46 1021.58 1021.66 1021.72 1021.76 1021.79 1021.80 1021.77 1021.69 1021.56 1021.36 1021.10 1020.79 1020.45 1020.08 1019.73 1019.40 1019.11 1018.87 1018.68 1018.54 1018.45 1018.39 1018.37 1018.39 1018.44 1018.52 1018.61 1018.71 1018.80
1015.81 1016.16 1016.58 1017.08 1017.62 1018.19 1018.76 1019.31 1019.82 1020.27 1020.64 1020.93 1021.15 1021.31 1021.42 1021.50 1021.56 1021.62 1021.68 1021.73 1021.76 1021.75 1021.69 1021.57 1021.37 1021.12 1020.83 1020.50 1020.16 1019.83 1019.53 1019.26 1019.02 1018.83 1018.67 1018.55 1018.48 1018.44 1018.46 1018.52 1018.63 1018.77 1018.92
1015.76 1016.04 1016.41 1016.85 1017.36 1017.92 1018.49 1019.06 1019.59 1020.05 1020.44 1020.75 1020.97 1021.12 1021.21 1021.28 1021.34 1021.40 1021.48 1021.56 1021.63 1021.69 1021.69 1021.65 1021.53 1021.35 1021.12 1020.84 1020.54 1020.23 1019.92 1019.64 1019.37 1019.14 1018.93 1018.76 1018.63 1018.55 1018.53 1018.57 1018.67 1018.82 1019.00
1015.79 1016.01 1016.31 1016.70 1017.16 1017.68 1018.24 1018.80 1019.34 1019.82 1020.22 1020.53 1020.76 1020.90 1020.98 1021.03 1021.07 1021.13 1021.20 1021.30 1021.41 1021.51 1021.58 1021.60 1021.56 1021.46 1021.29 1021.08 1020.83 1020.56 1020.28 1020.00 1019.74 1019.49 1019.25 1019.05 1018.88 1018.76 1018.71 1018.72 1018.80 1018.93 1019.12
1015.89 1016.04 1016.28 1016.59 1016.99 1017.47 1017.99 1018.53 1019.07 1019.55 1019.96 1020.28 1020.51 1020.65 1020.72 1020.76 1020.78 1020.82 1020.89 1021.00 1021.12 1021.25 1021.37 1021.45 1021.48 1021.45 1021.36 1021.21 1021.03 1020.81 1020.58 1020.35 1020.11 1019.87 1019.65 1019.44 1019.26 1019.11 1019.02 1019.00 1019.04 1019.14 1019.30
1016.00 1016.10 1016.28 1016.52 1016.85 1017.26 1017.73 1018.24 1018.75 1019.23 1019.65 1019.97 1020.21 1020.35 1020.43 1020.46 1020.48 1020.51 1020.57 1020.68 1020.81 1020.97 1021.12 1021.24 1021.32 1021.35 1021.32 1021.25 1021.13 1020.99 1020.82 1020.65 1020.46 1020.27 1020.08 1019.89 1019.72 1019.57 1019.45 1019.39 1019.38 1019.43 1019.53
1016.12 1016.18 1016.29 1016.46 1016.72 1017.05 1017.46 1017.91 1018.39 1018.85 1019.26 1019.59 1019.84 1020.00 1020.09 1020.13 1020.15 1020.19 1020.25 1020.36 1020.50 1020.66 1020.83 1020.99 1021.11 1021.18 1021.21 1021.20 1021.15 1021.07 1020.98 1020.88 1020.76 1020.64 1020.50 1020.36 1020.21 1020.06 1019.93 1019.83 1019.77 1019.76 1019.79
1016.22 1016.25 1016.30 1016.41 1016.58 1016.83 1017.16 1017.55 1017.97 1018.39 1018.79 1019.12 1019.38 1019.56 1019.68 1019.74 1019.79 1019.84 1019.92 1020.04 1020.18 1020.36 1020.54 1020.71 1020.85 1020.96 1021.03 1021.06 1021.07 1021.06 1021.03 1021.01 1020.97 1020.92 1020.85 1020.76 1020.64 1020.52 1020.38 1020.25 1020.14 1020.06 1020.01
1016.30 1016.30 1016.31 1016.35 1016.44 1016.60 1016.84 1017.14 1017.50 1017.88 1018.24 1018.56 1018.83 1019.03 1019.18 1019.28 1019.36 1019.44 1019.55 1019.68 1019.85 1020.03 1020.22 1020.41 1020.56 1020.69 1020.78 1020.85 1020.89 1020.93 1020.97 1021.00 1021.03 1021.05 1021.05 1021.02 1020.96 1020.85 1020.73 1020.58 1020.43 1020.29 1020.17
1016.37 1016.35 1016.31 1016.29 1016.30 1016.37 1016.51 1016.73 1017.01 1017.32 1017.64 1017.94 1018.20 1018.42 1018.59 1018.73 1018.85 1018.97 1019.11 1019.27 1019.45 1019.66 1019.86 1020.05 1020.22 1020.35 1020.46 1020.54 1020.61 1020.68 1020.76 1020.85 1020.93 1021.02 1021.08 1021.10 1021.09 1021.03 1020.92 1020.77 1020.60 1020.42 1020.25
1016.41 1016.37 1016.30 1016.21 1016.16 1016.14 1016.20 1016.32 1016.52 1016.75 1017.02 1017.28 1017.53 1017.74 1017.93 1018.09 1018.24 1018.40 1018.57 1018.77 1018.98 1019.20 1019.42 1019.62 1019.79 1019.93 1020.05 1020.14 1020.22 1020.31 1020.42 1020.54 1020.67 1020.80 1020.91 1021.00 1021.03 1021.01 1020.93 1020.81 1020.64 1020.45 1020.26
1016.42 1016.37 1016.26 1016.14 1016.02 1015.94 1015.91 1015.96 1016.06 1016.23 1016.42 1016.64 1016.84 1017.04 1017.22 1017.39 1017.57 1017.75 1017.95 1018.17 1018.40 1018.64 1018.88 1019.09 1019.27 1019.42 1019.54 1019.64 1019.73 1019.84 1019.96 1020.10 1020.26 1020.43 1020.58 1020.71 1020.80 1020.83 1020.79 1020.70 1020.57 1020.39 1020.20
1016.38 1016.32 1016.20 1016.05 1015.89 1015.76 1015.67 1015.65 1015.68 1015.77 1015.90 1016.05 1016.21 1016.36 1016.52 1016.68 1016.85 1017.04 1017.25 1017.48 1017.73 1017.99 1018.24 1018.46 1018.66 1018.81 1018.94 1019.05 1019.16 1019.27 1019.41 1019.56 1019.74 1019.94 1020.13 1020.30 1020.43 1020.51 1020.53 1020.49 1020.39 1020.26 1020.09
1016.28 1016.22 1016.09 1015.93 1015.76 1015.60 1015.48 1015.41 1015.38 1015.41 1015.47 1015.55 1015.65 1015.75 1015.87 1015.99 1016.14 1016.31 1016.51 1016.74 1017.00 1017.26 1017.52 1017.75 1017.96 1018.13 1018.28 1018.40 1018.52 1018.65 1018.79 1018.97 1019.16 1019.38 1019.60 1019.80 1019.97 1020.09 1020.16 1020.17 1020.13 1020.05 1019.93
1016.11 1016.06 1015.95 1015.80 1015.63 1015.47 1015.33 1015.23 1015.17 1015.14 1015.14 1015.17 1015.20 1015.24 1015.29 1015.37 1015.47 1015.61 1015.79 1016.00 1016.24 1016.50 1016.75 1017.00 1017.22 1017.41 1017.57 1017.71 1017.85 1017.99 1018.15 1018.34 1018.55 1018.78 1019.02 1019.24 1019.44 1019.60 1019.72 1019.78 1019.79 1019.76 1019.70
1015.89 1015.85 1015.76 1015.64 1015.49 1015.35 1015.22 1015.11 1015.03 1014.97 1014.92 1014.89 1014.85 1014.83 1014.82 1014.84 1014.89 1014.97 1015.11 1015.29 1015.50 1015.74 1015.99 1016.23 1016.46 1016.66 1016.84 1017.00 1017.16 1017.33 1017.50 1017.71 1017.93 1018.17 1018.41 1018.65 1018.87 1019.05 1019.20 1019.30 1019.35 1019.37 1019.35
1015.65 1015.63 1015.56 1015.47 1015.35 1015.24 1015.13 1015.03 1014.94 1014.86 1014.77 1014.69 1014.60 1014.52 1014.45 1014.40 1014.39 1014.42 1014.51 1014.65 1014.82 1015.03 1015.26 1015.49 1015.72 1015.93 1016.12 1016.30 1016.48 1016.66 1016.86 1017.07 1017.31 1017.55 1017.80 1018.04 1018.25 1018.45 1018.60 1018.72 1018.80 1018.85 1018.87
1015.40 1015.40 1015.37 1015.31 1015.23 1015.15 1015.06 1014.97 1014.88 1014.78 1014.67 1014.54 1014.41 1014.27 1014.15 1014.04 1013.98 1013.96 1014.00 1014.09 1014.23 1014.40 1014.60 1014.81 1015.02 1015.23 1015.43 1015.62 1015.81 1016.01 1016.22 1016.44 1016.67 1016.92 1017.16 1017.38 1017.59 1017.77 1017.93 1018.04 1018.13 1018.20 1018.24
1015.20 1015.21 1015.20 1015.17 1015.13 1015.07 1015.00 1014.92 1014.82 1014.70 1014.56 1014.41 1014.23 1014.05 1013.89 1013.74 1013.64 1013.58 1013.57 1013.62 1013.72 1013.85 1014.01 1014.20 1014.38 1014.57 1014.77 1014.96 1015.15 1015.36 1015.57 1015.79 1016.03 1016.26 1016.48 1016.69 1016.88 1017.04 1017.17 1017.28 1017.36 1017.42 1017.47
1015.05 1015.08 1015.09 1015.08 1015.05 1015.01 1014.95 1014.86 1014.75 1014.61 1014.44 1014.25 1014.05 1013.84 1013.65 1013.47 1013.34 1013.25 1013.21 1013.22 1013.28 1013.38 1013.50 1013.65 1013.80 1013.97 1014.14 1014.31 1014.50 1014.70 1014.91 1015.12 1015.34 1015.56 1015.77 1015.96 1016.12 1016.26 1016.36 1016.44 1016.51 1016.56 1016.60
1014.96 1015.00 1015.03 1015.03 1015.01 1014.97 1014.90 1014.80 1014.66 1014.50 1014.30 1014.08 1013.85 1013.62 1013.41 1013.22 1013.07 1012.97 1012.91 1012.89 1012.92 1012.98 1013.06 1013.17 1013.28 1013.40 1013.54 1013.69 1013.85 1014.03 1014.22 1014.42 1014.63 1014.83 1015.01 1015.18 1015.32 1015.43 1015.51 1015.57 1015.61 1015.64 1015.67
1014.91 1014.97 1015.01 1015.02 1015.00 1014.95 1014.86 1014.73 1014.56 1014.36 1014.13 1013.89 1013.64 1013.40 1013.18 1012.99 1012.83 1012.72 1012.65 1012.62 1012.62 1012.64 1012.68 1012.74 1012.80 1012.88 1012.97 1013.08 1013.21 1013.36 1013.52 1013.70 1013.88 1014.06 1014.22 1014.36 1014.48 1014.57 1014.62 1014.66 1014.69 1014.71 1014.73
1014.89 1014.96 1015.01 1015.02 1014.99 1014.93 1014.81 1014.65 1014.45 1014.22 1013.97 1013.70 1013.44 1013.19 1012.97 1012.79 1012.64 1012.53 1012.45 1012.40 1012.38 1012.37 1012.36 1012.37 1012.38 1012.40 1012.44 1012.50 1012.58 1012.68 1012.81 1012.96 1013.11 1013.26 1013.40 1013.52 1013.61 1013.68 1013.72 1013.75 1013.76 1013.77 1013.79
1014.87 1014.96 1015.01 1015.02 1014.98 1014.90 1014.76 1014.58 1014.35 1014.09 1013.82 1013.54 1013.28 1013.03 1012.81 1012.64 1012.50 1012.39 1012.30 1012.24 1012.19 1012.14 1012.09 1012.05 1012.00 1011.97 1011.94 1011.95 1011.97 1012.03 1012.11 1012.22 1012.33 1012.45 1012.56 1012.65 1012.73 1012.78 1012.80 1012.82 1012.82 1012.83 1012.85
1014.85 1014.94 1014.99 1015.00 1014.95 1014.85 1014.70 1014.50 1014.25 1013.99 1013.70 1013.43 1013.16 1012.93 1012.72 1012.55 1012.42 1012.31 1012.21 1012.13 1012.05 1011.96 1011.87 1011.77 1011.67 1011.57 1011.50 1011.44 1011.41 1011.41 1011.45 1011.50 1011.57 1011.65 1011.73 1011.79 1011.83 1011.85 1011.86 1011.86 1011.86 1011.86 1011.88
1014.82 1014.91 1014.96 1014.96 1014.90 1014.79 1014.62 1014.41 1014.17 1013.90 1013.63 1013.36 1013.11 1012.89 1012.69 1012.53 1012.39 1012.28 1012.17 1012.06 1011.95 1011.82 1011.68 1011.53 1011.38 1011.23 1011.10 1010.98 1010.90 1010.85 1010.83 1010.83 1010.85 1010.88 1010.91 1010.93 1010.93 1010.92 1010.90 1010.88 1010.86 1010.85 1010.87
Thickness
5597 5598 5599 5600 5601 5602 5604 5605 5607 5607 5608 5610 5612 5613 5614 5613 5613 5612 5612 5613 5613 5614 5616 5617 5618 5618 5619 5619 5619 5620 5620 5620 5619 5620 5621 5621 5621 5620 5618 5616 5615 5614 5613
5593 5593 5594 5595 5596 5596 5597 5599 5599 5600 5601 5602 5603 5604 5604 5605 5605 5604 5604 5605 5606 5606 5607 5608 5610 5610 5610 5610 5610 5610 5611 5610 5609 5610 5612 5614 5614 5612 5608 5606 5605 5604 5603
5589 5589 5589 5589 5589 5590 5591 5592 5592 5593 5593 5593 5594 5595 5595 5596 5598 5598 5598 5598 5598 5598 5598 5599 5600 5600 5601 5602 5601 5601 5601 5602 5600 5599 5600 5603 5605 5601 5600 5597 5596 5594 5593
5584 5584 5584 5583 5584 5584 5584 5584 5585 5585 5586 5586 5587 5589 5590 5591 5591 5590 5590 5590 5590 5590 5590 5591 5591 5592 5592 5592 5592 5592 5591 5591 5591 5590 5587 5587 5588 5587 5590 5589 5586 5584 5582
5579 5578 5577 5577 5577 5577 5576 5577 5577 5577 5578 5578 5579 5580 5581 5581 5581 5581 5581 5581 5581 5581 5582 5582 5583 5583 5583 5582 5582 5582 5581 5581 5581 5580 5578 5576 5575 5575 5576 5580 5578 5575 5573
5573 5572 5571 5570 5570 5570 5569 5569 5570 5570 5570 5570 5571 5571 5572 5572 5572 5572 5573 5573 5573 5573 5573 5573 5573 5574 5573 5572 5572 5571 5571 5570 5569 5568 5567 5566 5566 5565 5564 5566 5566 5565 5564
5570 5568 5568 5566 5565 5564 5563 5563 5563 5563 5563 5563 5563 5563 5563 5563 5563 5564 5565 5565 5565 5565 5565 5564 5564 5564 5564 5562 5561 5561 5560 5559 5558 5557 5555 5554 5553 5552 5551 5552 5554 5554 5554
5565 5564 5563 5562 5561 5559 5558 5557 5557 5556 5555 5555 5555 5554 5554 5554 5555 5555 5556 5556 5557 5557 5556 5555 5555 5554 5554 5553 5552 5551 5550 5549 5548 5546 5544 5543 5542 5540 5540 5540 5540 5543 5545
5559 5558 5556 5555 5555 5554 5552 5551 5550 5549 5548 5547 5547 5547 5546 5546 5547 5547 5547 5547 5547 5546 5546 5546 5545 5545 5544 5543 5542 5541 5540 5539 5537 5535 5533 5532 5531 5529 5528 5527 5527 5528 5534
5554 5553 5551 5549 5548 5547 5545 5544 5542 5542 5541 5540 5540 5539 5539 5539 5538 5538 5538 5537 5537 5536 5536 5536 5536 5535 5534 5533 5531 5530 5529 5528 5527 5524 5522 5521 5520 5518 5516 5515 5515 5514 5516
5547 5546 5544 5542 5541 5540 5538 5537 5536 5535 5534 5533 5533 5532 5532 5531 5530 5530 5530 5529 5528 5527 5527 5527 5526 5525 5524 5522 5520 5519 5518 5517 5516 5513 5512 5510 5508 5507 5505 5504 5503 5502 5501
5539 5538 5536 5534 5533 5532 5531 5530 5529 5528 5527 5526 5525 5525 5524 5523 5522 5522 5521 5520 5519 5519 5518 5516 5516 5515 5513 5511 5510 5509 5507 5506 5505 5503 5501 5499 5496 5495 5493 5492 5491 5490 5489
5532 5531 5529 5528 5527 5525 5524 5523 5522 5521 5519 5518 5518 5517 5516 5515 5514 5513 5512 5511 5510 5509 5507 5506 5505 5504 5502 5500 5499 5498 5496 5495 5493 5491 5490 5488 5485 5484 5481 5479 5478 5477 5476
5526 5525 5524 5522 5520 5518 5517 5516 5515 5513 5511 5510 5509 5509 5508 5507 5506 5505 5503 5502 5500 5499 5498 5496 5495 5493 5492 5490 5488 5486 5485 5484 5482 5479 5477 5476 5474 5472 5470 5468 5466 5465 5464
5520 5519 5517 5516 5513 5511 5510 5508 5507 5505 5503 5501 5501 5500 5499 5498 5497 5495 5493 5492 5490 5489 5487 5486 5485 5483 5481 5479 5477 5476 5475 5473 5471 5469 5466 5465 5462 5459 5458 5456 5455 5453 5451
5514 5512 5510 5509 5507 5505 5503 5501 5499 5497 5494 5493 5493 5491 5490 5488 5487 5486 5484 5482 5481 5479 5477 5476 5475 5473 5471 5469 5466 5465 5464 5462 5461 5459 5457 5454 5451 5449 5446 5444 5442 5440 5440
5508 5506 5504 5501 5499 5497 5495 5492 5490 5488 5486 5485 5484 5482 5480 5479 5477 5476 5474 5473 5471 5470 5468 5467 5465 5463 5462 5459 5456 5454 5453 5452 5451 5449 5447 5444 5442 5438 5436 5434 5432 5430 5428
5500 5498 5496 5493 5491 5488 5486 5483 5481 5479 5477 5476 5475 5473 5471 5470 5468 5466 5465 5464 5462 5460 5459 5457 5455 5454 5452 5449 5447 5445 5443 5442 5441 5439 5437 5435 5432 5429 5426 5424 5423 5422 5419
5491 5489 5487 5484 5482 5479 5477 5474 5472 5470 5468 5467 5466 5464 5462 5461 5459 5458 5456 5454 5452 5451 5449 5447 5445 5444 5443 5440 5437 5434 5434 5433 5432 5429 5427 5424 5422 5420 5417 5415 5414 5413 5411
5480 5478 5476 5474 5472 5470 5467 5464 5463 5461 5460 5458 5456 5454 5452 5450 5449 5448 5446 5444 5442 5441 5439 5438 5436 5435 5434 5431 5428 5425 5425 5425 5423 5421 5418 5415 5413 5410 5408 5406 5405 5404 5403
5468 5466 5465 5464 5462 5460 5457 5455 5454 5453 5451 5448 5446 5444 5442 5440 5439 5438 5436 5434 5432 5430 5429 5429 5427 5426 5424 5422 5419 5417 5416 5415 5414 5412 5410 5408 5404 5402 5399 5397 5396 5395 5392
5456 5455 5454 5453 5452 5448 5446 5446 5445 5443 5440 5438 5436 5434 5433 5431 5429 5428 5427 5425 5423 5421 5421 5420 5419 5418 5416 5413 5412 5409 5407 5406 5405 5404 5402 5399 5396 5393 5391 5389 5387 5385 5382
5446 5444 5443 5443 5441 5439 5437 5436 5436 5433 5430 5428 5427 5426 5424 5422 5420 5419 5418 5416 5414 5413 5413 5412 5411 5410 5408 5406 5403 5401 5399 5397 5396 5395 5393 5390 5388 5385 5383 5381 5378 5375 5373
5436 5434 5432 5432 5432 5430 5428 5427 5425 5423 5421 5420 5419 5417 5415 5414 5412 5410 5408 5407 5407 5405 5404 5404 5403 5402 5400 5398 5396 5394 5392 5389 5388 5387 5385 5382 5379 5376 5374 5372 5370 5367 5364
5426 5424 5423 5423 5423 5421 5419 5417 5415 5413 5412 5411 5410 5408 5406 5405 5404 5402 5401 5400 5399 5398 5397 5396 5395 5394 5393 5392 5389 5386 5385 5383 5381 5379 5377 5374 5372 5369 5367 5365 5362 5359 5356
5417 5415 5414 5414 5413 5411 5410 5408 5405 5403 5403 5402 5402 5400 5398 5397 5395 5394 5394 5392 5390 5389 5387 5387 5386 5386 5384 5383 5381 5379 5377 5375 5372 5370 5369 5368 5365 5363 5360 5358 5355 5351 5348